Location: Arborea
(39.7744°N, 8.5819°E)
Time: 13:39:31
(UTC+00:00)

Daily predictions for brighter satellites

Satellite Brightness Start Highest point End
(mag) Time Altitude Azimuth Time Altitude Azimuth Time Altitude Azimuth
SME Rocket 4.4 16:51:06 10° N 16:55:37 61° WNW 17:02:12 10° SSW
Cosmos 2263 Rocket 2.2 16:52:16 10° NNW 16:57:48 63° ENE 17:03:18 10° SE
Cosmos 1980 Rocket 3.4 16:54:15 10° SW 16:59:38 44° WNW 17:05:05 10° N
Cosmos 1000 Rocket 4.5 16:58:00 10° N 17:04:11 70° E 17:10:23 10° SSE
PSLV R/B 3.8 17:00:37 10° SSE 17:04:38 76° ENE 17:08:35 10° N
CZ-4C R/B 4.2 17:02:30 10° NE 17:05:01 20° E 17:07:29 10° SE
Iridium 4 Rocket 3.9 17:02:32 10° NNE 17:06:56 37° E 17:11:43 10° SSE
CZ-2C R/B 2.5 17:05:08 10° WSW 17:08:30 31° SSW 17:11:40 10° SE
CZ-2C R/B 3.2 17:03:32 10° NNE 17:08:45 39° E 17:13:49 10° SSE
PAYLOAD B 4.2 17:03:49 10° SSE 17:09:19 73° ENE 17:14:52 10° N
Cosmos 2227 4.3 17:03:37 10° NNW 17:09:21 62° ENE 17:15:01 10° SE
SKYMED 2 3.9 17:05:49 10° NNE 17:09:57 42° E 17:14:04 10° S
SL-19 R/B 4.3 17:04:24 10° NNE 17:10:00 67° ESE 17:15:33 10° S
Cosmos 1455 Rocket 3.1 17:05:45 10° S 17:10:09 86° E 17:14:38 10° N
YAOGAN 1 4.1 17:08:46 10° ESE 17:11:26 16° ENE 17:14:05 10° NNE
BREEZE M DEB (TANK) 4.4 17:11:10 10° WNW 17:15:31 82° NNE 17:48:26 10° ESE
H-2A R/B 3.7 17:14:23 10° ENE 17:16:26 13° E 17:18:28 10° ESE
Cosmos 1892 4.4 17:15:26 10° NE 17:17:19 13° ENE 17:18:14 12° E
CZ-2D R/B 3.2 17:15:51 10° SSE 17:19:41 78° ENE 17:23:33 10° N
Cosmos 304 Rocket 3.9 17:18:36 10° S 17:23:13 52° ESE 17:27:53 10° NNE
Cosmos 1544 Rocket 3.5 17:20:09 10° S 17:24:35 69° E 17:29:02 10° NNE
Landsat 5 3.7 17:20:15 10° NNE 17:24:40 57° E 17:29:05 10° S
NOSS 2-3 (E) 3.5 17:22:22 10° SW 17:26:18 78° NW 17:30:45 10° NNE
Cosmos 1328 3.7 17:22:20 10° N 17:26:22 71° E 17:30:23 10° SSE
USA 215 4.4 17:23:14 10° NE 17:29:11 39° NNW 17:35:08 10° W
Cosmos 2237 4.4 17:24:10 10° S 17:29:39 52° ESE 17:35:12 10° NNE
Cosmos 1844 Rocket 3.7 17:25:30 10° N 17:30:04 25° NE 17:33:26 15° ESE
USA 229 DEB 3.6 17:24:51 10° SSW 17:31:00 59° ESE 17:37:32 10° NE
USA 229 3.6 17:24:58 10° SSW 17:31:06 58° ESE 17:37:37 10° NE
MOS 1-B Rocket 4.0 17:25:02 10° NNE 17:31:19 62° E 17:36:57 10° S
Cosmos 1934 Rocket 3.9 17:25:52 10° S 17:31:58 83° E 17:38:03 10° N
Meteor 2-10 Rocket 3.9 17:28:21 10° SSE 17:33:39 45° E 17:38:46 10° NNE
Cosmos 1953 4.4 17:30:56 10° SW 17:34:33 31° WNW 17:38:10 10° NNW
Lacrosse 4 Rocket 2.1 17:31:10 10° N 17:35:12 37° ENE 17:38:32 14° ESE
Cosmos 1408 4.2 17:32:51 10° NNE 17:34:31 17° NE 17:34:31 17° NE
Okean O Rocket 1.5 17:34:28 10° SSE 17:38:46 73° ENE 17:43:08 10° N
H-2A R/B 2.2 17:34:39 10° SSE 17:40:02 83° WSW 17:45:32 10° NNW
FALCON 9 DEB 3.6 17:38:21 10° SSW 17:41:00 31° SE 17:41:37 28° ESE
EXPRESS MD2 2.7 17:39:18 10° SSW 17:41:16 31° SE 17:41:21 31° SE
deb Chang Zheng 4 4.0 17:39:38 10° S 17:43:47 62° WSW 17:47:59 10° NNW
Cosmos 332 Rocket 3.8 17:39:38 10° SSW 17:44:32 86° ESE 17:49:26 10° NNE
OAO 3 Rocket 4.4 17:42:03 10° SW 17:46:07 28° SSE 17:48:21 19° ESE
Spot 2 4.1 17:45:07 10° SSE 17:49:06 50° ENE 17:53:18 10° N
Cosmos 1455 4.5 17:46:38 10° SE 17:46:47 11° SE 17:46:47 11° SE
X-37B 0.5 17:47:05 10° WNW 17:49:57 56° NNE 17:50:32 44° ENE
DMSP B5D2-2 4.4 17:47:19 10° NNE 17:52:15 40° E 17:57:07 10° SSE
Cosmos 1602 Rocket 3.5 17:48:50 10° N 17:53:06 54° E 17:57:18 10° SSE
Delta 2 Rocket 3.6 17:49:52 10° WSW 17:53:15 41° S 17:54:25 29° SE
NOSS 3-1 (A) 3.1 17:48:23 10° SSW 17:53:32 87° ESE 17:59:32 10° NE
ATLAS 5 CENTAUR R/B 4.2 17:52:08 10° WNW 17:53:43 12° NW 17:55:22 10° N
Cosmos 1300 4.0 17:53:16 10° SSW 17:56:54 43° W 18:00:32 10° N
SL-16 R/B 2.9 17:52:06 10° SW 17:57:38 55° WNW 18:03:14 10° NNE
COSMO-SKYMED 1 3.4 17:53:48 10° N 17:58:02 53° WNW 18:02:15 10° SSW
Okean 1-7 Rocket 4.4 17:55:55 10° NNW 18:00:14 54° W 18:04:35 10° S
USA 267 3.4 17:55:03 10° SE 18:01:34 77° SW 18:08:08 10° NW
Okean-O 3.5 18:02:48 29° NE 18:02:48 29° NE 18:06:01 10° N
Cosmos 2123 Rocket 4.5 17:57:42 10° NNW 18:03:57 64° W 18:10:08 10° S
CZ-4 R/B 1.4 18:01:03 13° SSE 18:04:32 57° ENE 18:08:34 10° N
BREEZE-M R/B 3.4 18:04:50 10° NW 18:08:06 38° NNE 18:09:11 32° ENE
FALCON 9 DEB 2.7 18:05:38 10° SW 18:08:22 74° SSW 18:08:22 74° SSW
Cosmos 2322 Rocket 2.8 18:04:19 10° SW 18:09:50 58° WNW 18:15:23 10° NNE
IRAS Rocket 4.2 18:06:51 10° NNE 18:12:26 90° W 18:17:55 10° SSW
Cosmos 2219 Rocket 2.7 18:11:20 10° S 18:15:44 35° ESE 18:15:44 35° ESE
SL-08 RB Rocket 3.7 18:12:00 10° SSE 18:16:32 85° WSW 18:21:10 10° NNW
Milstar 3 Cent rocket 4.2 18:12:39 10° SSW 18:18:11 28° SSE 18:21:08 24° ESE
Cosmos 2360 Rocket 2.2 18:13:46 10° SSW 18:19:23 81° WNW 18:25:06 10° NNE
Cosmos 2251 Rocket 3.3 18:15:01 10° NNW 18:20:17 78° ENE 18:23:32 23° SSE
Cosmos 407 Rocket 4.2 18:15:47 10° N 18:20:05 35° NE 18:20:05 35° NE
FALCON 9 DEB 4.2 18:17:58 10° SW 18:19:44 32° SSW 18:19:44 32° SSW
Cosmos 1140 Rocket 4.3 18:16:48 10° N 18:20:32 32° NE 18:20:32 32° NE
Cosmos 1459 Rocket 4.2 18:16:11 10° SSE 18:22:01 44° E 18:27:47 10° NNE
Cosmos 2228 2.9 18:17:56 10° S 18:22:17 73° E 18:26:41 10° NNE
H-2A R/B 2.7 18:18:13 10° S 18:22:30 70° WSW 18:26:41 10° NNW
Cosmos 1758 Rocket 3.3 18:18:16 10° N 18:22:36 76° E 18:24:09 39° SSE
Cosmos 1844 3.8 18:16:57 10° NNW 18:22:37 55° ENE 18:23:55 45° ESE
FALCON 9 DEB 3.9 18:21:02 10° SW 18:23:33 45° SSW 18:23:33 45° SSW
Cosmos 2100 Rocket 4.1 18:18:44 10° SSE 18:24:47 52° E 18:30:55 10° NNE
Tiangong 2.0 18:22:12 10° WNW 18:24:40 49° WNW 18:24:40 49° WNW
ARGOS 3.9 18:20:19 10° S 18:25:34 53° W 18:30:52 10° NNW
Cosmos 2333 Rocket 2.2 18:20:52 10° S 18:26:22 56° ESE 18:27:35 46° ENE
MetOp-A 4.2 18:26:08 49° ESE 18:26:58 55° ENE 18:32:12 10° N
Cosmos 2173 Rocket 3.9 18:30:56 10° S 18:36:59 61° E 18:43:09 10° NNE
Cosmos 44 4.5 18:33:34 10° SW 18:38:46 46° NW 18:42:36 17° NNE
In-Cosmos 22 Rocket 4.5 18:35:44 10° NNW 18:40:58 63° W 18:46:13 10° S
CSL-04 Debris 4.0 18:44:16 73° ENE 18:44:18 73° ENE 18:49:43 10° N
YAOGAN 1 3.6 18:43:01 10° S 18:47:09 44° W 18:51:18 10° NNW
CZ-2C R/B 3.7 18:45:53 10° SW 18:46:56 12° SSW 18:46:56 12° SSW
IRS-1C Rocket 4.1 18:45:20 29° S 18:48:02 76° WSW 18:53:20 10° NNW
Cosmos 2322 3.5 18:43:41 10° SSW 18:49:21 78° ESE 18:49:21 78° ESE
H-2A R/B 2.9 18:51:01 31° NNW 18:52:36 47° WNW 18:56:39 10° SW
Cosmos 1892 4.2 18:49:39 10° NNW 18:53:06 35° W 18:53:16 35° W
Cosmos 2344 4.4 18:43:30 10° NW 18:53:12 88° WSW 19:04:01 19° SSE
CSL-04 Rocket 3.7 18:56:00 74° NNE 18:56:00 74° NNE 19:01:07 10° NNW
Lacrosse 4 Rocket 3.8 19:10:22 10° WNW 19:13:37 21° WSW 19:14:55 18° SW
Cosmos 1844 Rocket 3.5 19:08:51 10° NW 19:14:08 46° WSW 19:15:10 41° SW
Cosmos 2278 Rocket 4.5 19:33:39 10° N 19:34:34 15° N 19:34:34 15° N
Cosmos 2219 Rocket 4.3 19:55:26 10° WSW 19:57:34 21° WSW 19:57:34 21° WSW
CENTAUR R/B 4.5 19:55:39 10° NNW 19:59:45 27° N 19:59:45 27° N
Cosmos 2333 Rocket 4.4 20:06:39 10° WSW 20:09:42 21° WNW 20:09:42 21° WNW
